• In Uzbekistan
  • List of Countries
  • For 7 days
  • Water Temperature
  • Satellite Maps
  • Weather Map
  • Weather Widgets
  • user-avatar
    Login

    Hourly Weather Córdoba

    Today, 28 March, Tuesday

    Time Temperature Precipitation Wind Pressure Humidity
    00:00 +24°C° 0.6 mm 1 mps 725 mmHg 90%
    01:00 +23°C° 0.6 mm 1 mps 725 mmHg 91%
    02:00 +23°C° 0.6 mm 1 mps 725 mmHg 92%
    03:00 +23°C° 0.6 mm 1 mps 725 mmHg 93%
    04:00 +23°C° 0.6 mm 1 mps 725 mmHg 94%
    05:00 +23°C° 0.6 mm 1 mps 725 mmHg 94%
    06:00 +23°C° 0.5 mm 2 mps 725 mmHg 93%
    07:00 +23°C° 0.5 mm 2 mps 726 mmHg 91%
    08:00 +24°C° 0.5 mm 2 mps 726 mmHg 89%
    09:00 +25°C° 0.4 mm 3 mps 726 mmHg 82%
    10:00 +26°C° 0.4 mm 3 mps 726 mmHg 76%
    11:00 +28°C° 0.4 mm 4 mps 726 mmHg 69%
    12:00 +28°C° 1.1 mm 5 mps 725 mmHg 66%
    13:00 +29°C° 1.1 mm 5 mps 725 mmHg 62%
    14:00 +30°C° 1.1 mm 6 mps 725 mmHg 59%
    15:00 +30°C° 0.6 mm 5 mps 724 mmHg 58%
    16:00 +30°C° 0.6 mm 5 mps 724 mmHg 58%
    17:00 +30°C° 0.6 mm 5 mps 724 mmHg 57%
    18:00 +28°C° 0.2 mm 5 mps 724 mmHg 59%
    19:00 +27°C° 0.2 mm 4 mps 724 mmHg 62%
    20:00 +26°C° 0.2 mm 3 mps 724 mmHg 64%
    21:00 +26°C° 0.1 mm 4 mps 725 mmHg 66%
    22:00 +25°C° 0.1 mm 4 mps 725 mmHg 67%
    23:00 +25°C° 0.1 mm 4 mps 725 mmHg 68%

    Tomorrow, 29 March, Wednesday

    Time Temperature Precipitation Wind Pressure Humidity
    00:00 +23°C° 0 mm 4 mps 725 mmHg 71%
    01:00 +22°C° 0 mm 3 mps 725 mmHg 75%
    02:00 +21°C° 0 mm 3 mps 724 mmHg 78%
    03:00 +21°C° 0 mm 2 mps 724 mmHg 80%
    04:00 +20°C° 0 mm 2 mps 724 mmHg 83%
    05:00 +20°C° 0 mm 2 mps 724 mmHg 85%
    06:00 +20°C° 0 mm 2 mps 724 mmHg 82%
    07:00 +21°C° 0 mm 3 mps 724 mmHg 78%
    08:00 +22°C° 0 mm 3 mps 724 mmHg 75%
    09:00 +25°C° 0 mm 4 mps 724 mmHg 68%
    10:00 +27°C° 0 mm 5 mps 724 mmHg 61%
    11:00 +28°C° 0 mm 6 mps 724 mmHg 54%
    12:00 +29°C° 0.1 mm 6 mps 723 mmHg 53%
    13:00 +29°C° 0.1 mm 6 mps 722 mmHg 53%
    14:00 +30°C° 0.1 mm 6 mps 722 mmHg 53%
    15:00 +29°C° 0.1 mm 6 mps 721 mmHg 54%
    16:00 +29°C° 0.1 mm 6 mps 720 mmHg 56%
    17:00 +29°C° 0.1 mm 6 mps 720 mmHg 57%
    18:00 +27°C° 0.2 mm 5 mps 720 mmHg 63%
    19:00 +26°C° 0.2 mm 4 mps 720 mmHg 68%
    20:00 +25°C° 0.2 mm 3 mps 720 mmHg 74%
    21:00 +24°C° 0.2 mm 3 mps 721 mmHg 76%
    22:00 +24°C° 0.2 mm 2 mps 721 mmHg 78%
    23:00 +23°C° 0.2 mm 2 mps 721 mmHg 81%

    Day after tomorrow, 30 March, Thursday

    Time Temperature Precipitation Wind Pressure Humidity
    00:00 +23°C° 0.2 mm 1 mps 721 mmHg 82%
    01:00 +23°C° 0.2 mm 1 mps 721 mmHg 84%
    02:00 +23°C° 0.2 mm 1 mps 721 mmHg 85%
    03:00 +22°C° 0.1 mm 1 mps 721 mmHg 85%
    04:00 +22°C° 0.1 mm 1 mps 721 mmHg 85%
    05:00 +22°C° 0.1 mm 1 mps 721 mmHg 85%
    06:00 +22°C° 0.1 mm 1 mps 721 mmHg 85%
    07:00 +21°C° 0.1 mm 2 mps 722 mmHg 84%
    08:00 +23°C° 0.1 mm 2 mps 722 mmHg 83%
    09:00 +23°C° 0.3 mm 2 mps 723 mmHg 82%
    10:00 +23°C° 0.3 mm 2 mps 723 mmHg 81%
    11:00 +24°C° 0.3 mm 3 mps 723 mmHg 80%
    12:00 +25°C° 0.4 mm 3 mps 723 mmHg 75%
    13:00 +26°C° 0.4 mm 4 mps 722 mmHg 70%
    14:00 +27°C° 0.4 mm 4 mps 722 mmHg 66%
    15:00 +27°C° 0.1 mm 4 mps 722 mmHg 67%
    16:00 +26°C° 0.1 mm 4 mps 722 mmHg 69%
    17:00 +26°C° 0.1 mm 4 mps 721 mmHg 70%
    18:00 +25°C° 0 mm 3 mps 722 mmHg 75%
    19:00 +24°C° 0 mm 3 mps 722 mmHg 80%
    20:00 +23°C° 0 mm 2 mps 722 mmHg 85%
    21:00 +23°C° 0.4 mm 2 mps 723 mmHg 87%
    22:00 +23°C° 0.4 mm 2 mps 723 mmHg 88%
    23:00 +23°C° 0.4 mm 2 mps 724 mmHg 89%

    31 March, Friday

    Time Temperature Precipitation Wind Pressure Humidity
    00:00 +23°C° 0.6 mm 2 mps 723 mmHg 91%
    01:00 +21°C° 0.6 mm 2 mps 723 mmHg 92%
    02:00 +21°C° 0.6 mm 2 mps 723 mmHg 93%
    03:00 +21°C° 0.2 mm 2 mps 723 mmHg 93%
    04:00 +21°C° 0.2 mm 2 mps 723 mmHg 93%
    05:00 +21°C° 0.2 mm 2 mps 723 mmHg 94%
    06:00 +21°C° 0.2 mm 2 mps 724 mmHg 93%
    07:00 +21°C° 0.2 mm 2 mps 724 mmHg 92%
    08:00 +21°C° 0.2 mm 3 mps 725 mmHg 91%
    09:00 +21°C° 0.6 mm 3 mps 725 mmHg 90%
    10:00 +22°C° 0.6 mm 3 mps 725 mmHg 88%
    11:00 +22°C° 0.6 mm 3 mps 725 mmHg 86%
    12:00 +22°C° 0.4 mm 4 mps 725 mmHg 82%
    13:00 +23°C° 0.4 mm 4 mps 725 mmHg 79%
    14:00 +25°C° 0.4 mm 4 mps 724 mmHg 75%
    15:00 +25°C° 0.2 mm 4 mps 724 mmHg 77%
    16:00 +24°C° 0.2 mm 3 mps 724 mmHg 78%
    17:00 +24°C° 0.2 mm 3 mps 724 mmHg 79%
    18:00 +23°C° 0.3 mm 2 mps 724 mmHg 81%
    19:00 +23°C° 0.3 mm 2 mps 725 mmHg 84%
    20:00 +22°C° 0.3 mm 1 mps 725 mmHg 86%
    21:00 +22°C° 0.3 mm 1 mps 725 mmHg 85%
    22:00 +21°C° 0.3 mm 2 mps 725 mmHg 84%
    23:00 +21°C° 0.3 mm 2 mps 726 mmHg 82%

    1 April, Saturday

    Time Temperature Precipitation Wind Pressure Humidity
    00:00 +21°C° 0.1 mm 2 mps 725 mmHg 83%
    01:00 +22°C° 0.1 mm 1 mps 725 mmHg 83%
    02:00 +22°C° 0.1 mm 1 mps 725 mmHg 83%
    03:00 +22°C° 0.2 mm 1 mps 725 mmHg 84%
    04:00 +22°C° 0.2 mm 1 mps 725 mmHg 85%
    05:00 +21°C° 0.2 mm 1 mps 725 mmHg 87%
    06:00 +21°C° 0.5 mm 1 mps 725 mmHg 87%
    07:00 +22°C° 0.5 mm 1 mps 725 mmHg 86%
    08:00 +22°C° 0.5 mm 1 mps 726 mmHg 86%
    09:00 +21°C° 0.4 mm 2 mps 726 mmHg 83%
    10:00 +22°C° 0.4 mm 3 mps 726 mmHg 79%
    11:00 +24°C° 0.4 mm 3 mps 726 mmHg 75%
    12:00 +22°C° 0.4 mm 3 mps 726 mmHg 76%
    13:00 +22°C° 0.4 mm 3 mps 725 mmHg 76%
    14:00 +22°C° 0.4 mm 3 mps 725 mmHg 77%
    15:00 +22°C° 0.6 mm 3 mps 725 mmHg 80%
    16:00 +21°C° 0.6 mm 2 mps 724 mmHg 83%
    17:00 +21°C° 0.6 mm 2 mps 724 mmHg 86%
    18:00 +20°C° 0.4 mm 2 mps 724 mmHg 89%
    19:00 +21°C° 0.4 mm 1 mps 724 mmHg 92%
    20:00 +20°C° 0.4 mm 1 mps 724 mmHg 95%
    21:00 +20°C° 0.2 mm 1 mps 724 mmHg 95%
    22:00 +20°C° 0.2 mm 1 mps 724 mmHg 95%
    23:00 +19°C° 0.2 mm 2 mps 724 mmHg 95%

    2 April, Sunday

    Time Temperature Precipitation Wind Pressure Humidity
    00:00 +20°C° 0.2 mm 1 mps 724 mmHg 95%
    01:00 +20°C° 0.2 mm 1 mps 723 mmHg 95%
    02:00 +20°C° 0.2 mm 1 mps 723 mmHg 95%
    03:00 +20°C° 0.2 mm 1 mps 723 mmHg 95%
    04:00 +20°C° 0.2 mm 1 mps 723 mmHg 95%
    05:00 +20°C° 0.2 mm 1 mps 722 mmHg 94%
    06:00 +20°C° 0.3 mm 1 mps 722 mmHg 94%
    07:00 +21°C° 0.3 mm 1 mps 723 mmHg 93%
    08:00 +21°C° 0.3 mm 1 mps 723 mmHg 92%
    09:00 +20°C° 0.3 mm 2 mps 723 mmHg 91%
    10:00 +20°C° 0.3 mm 2 mps 723 mmHg 89%
    11:00 +20°C° 0.3 mm 3 mps 722 mmHg 88%
    12:00 +21°C° 0.2 mm 4 mps 722 mmHg 84%
    13:00 +22°C° 0.2 mm 5 mps 721 mmHg 80%
    14:00 +23°C° 0.2 mm 6 mps 721 mmHg 76%
    15:00 +23°C° 0.1 mm 5 mps 721 mmHg 75%
    16:00 +23°C° 0.1 mm 5 mps 720 mmHg 75%
    17:00 +23°C° 0.1 mm 5 mps 720 mmHg 75%
    18:00 +22°C° 0.2 mm 4 mps 721 mmHg 80%
    19:00 +20°C° 0.2 mm 3 mps 721 mmHg 86%
    20:00 +19°C° 0.2 mm 2 mps 721 mmHg 92%
    21:00 +19°C° 0.3 mm 2 mps 721 mmHg 92%
    22:00 +19°C° 0.3 mm 2 mps 721 mmHg 92%
    23:00 +19°C° 0.3 mm 2 mps 722 mmHg 92%
    Show more